This is the latest recevied weather packets stored in our database for station/object KE8ZLU. If no packets are shown the sender has not sent any weather packets the latest 10 day(s).
| Time | Temp. | Humidity | Pressure | Rain* | Wind** | Luminosity | Snow |
|---|---|---|---|---|---|---|---|
| 1778140124 | 3.89° C | 83% | 1014.2 hPa | 0 mm | - | 0 W/m² | - |
| 1778139822 | 3.89° C | 80% | 1014 hPa | 0 mm | - | 0 W/m² | - |
| 1778139519 | 3.89° C | 78% | 1014.2 hPa | 0 mm | - | 0 W/m² | - |
| 1778139215 | 3.89° C | 79% | 1014.1 hPa | 0 mm | - | 0 W/m² | - |
| 1778138912 | 4.44° C | 78% | 1014.2 hPa | 0 mm | - | 0 W/m² | - |
| 1778138610 | 4.44° C | 77% | 1014 hPa | 0 mm | - | 0 W/m² | - |
| 1778138307 | 4.44° C | 75% | 1014.2 hPa | 0 mm | - | 0 W/m² | - |
| 1778138004 | 4.44° C | 75% | 1014.3 hPa | 0 mm | - | 0 W/m² | - |
| 1778137700 | 3.89° C | 76% | 1014.1 hPa | 0 mm | - | 0 W/m² | - |
| 1778137398 | 3.89° C | 78% | 1014.3 hPa | 0 mm | - | 0 W/m² | - |
| 1778137094 | 3.89° C | 78% | 1014.3 hPa | 0 mm | - | 0 W/m² | - |
| 1778136791 | 3.89° C | 78% | 1014.4 hPa | 0 mm | - | 0 W/m² | - |
| 1778136488 | 3.89° C | 77% | 1014.3 hPa | 0 mm | - | 0 W/m² | - |
| 1778136187 | 4.44° C | 77% | 1014.2 hPa | 0 mm | - | 0 W/m² | - |
| 1778135884 | 5° C | 75% | 1014.3 hPa | 0 mm | - | 0 W/m² | - |
| 1778135581 | 5° C | 71% | 1014.5 hPa | 0 mm | - | 0 W/m² | - |
| 1778135278 | 5° C | 71% | 1014.4 hPa | 0 mm | - | 0 W/m² | - |
| 1778134975 | 5° C | 71% | 1014.3 hPa | 0 mm | - | 0 W/m² | - |
| 1778134673 | 5° C | 69% | 1014.4 hPa | 0 mm | - | 0 W/m² | - |
| 1778134370 | 5° C | 69% | 1014.5 hPa | 0 mm | - | 0 W/m² | - |
| 1778134069 | 5° C | 69% | 1014.7 hPa | 0 mm | - | 0 W/m² | - |
| 1778133765 | 5° C | 70% | 1014.4 hPa | 0 mm | - | 0 W/m² | - |
| 1778133461 | 5° C | 70% | 1014.5 hPa | 0 mm | - | 0 W/m² | - |
| 1778133157 | 5.56° C | 69% | 1014.6 hPa | 0 mm | - | 0 W/m² | - |
| 1778132853 | 6.11° C | 64% | 1014.6 hPa | 0 mm | - | 0 W/m² | - |
* Rain latest hour (hover to see other rain measurements)
** Current wind speed in m/s (hover to see current wind gust speed)